Regional Weather Roundup
Issued by NWS Upton, NY

Current Version | Previous Version | Graphics & Text | Print | Product List | Glossary Off
Versions: 1 2 3 4 5 6 7 8 9 10 11 12 13 14 15 16 17 18 19 20 21 22 23 24 25 26 27 28 29 30 31 32 33 34 35 36 37 38 39 40 41 42 43 44 45 46 47 48 49 50

000
ASUS41 KOKX 300207
RWROKX

REGIONAL WEATHER ROUNDUP
NATIONAL WEATHER SERVICE NEW YORK NY
1000 PM EDT SUN MAR 29 2015

NOTE: "FAIR" INDICATES FEW OR NO CLOUDS BELOW 12,000 FEET WITH NO
SIGNIFICANT WEATHER AND/OR OBSTRUCTIONS TO VISIBILITY.

NYZ071-072-176-178-NJZ106-104-300300-
NEW YORK CITY METRO AREA


CITY           SKY/WX    TMP DP  RH WIND       PRES   REMARKS
CENTRAL PARK   CLEAR     42   9  25 SW8       30.16S
LAGUARDIA APRT PTCLDY    40  23  50 S7        30.14F
KENNEDY INTL   PTCLDY    37  28  70 S17       30.17R WCI  27
NEWARK/LIBERTY PTCLDY    40   9  28 SW9       30.15S WCI  34
BRNX BOT. GARD   N/A    N/A N/A N/A SE5       30.14S
TETERBORO      CLEAR     40  10  29 SW9       30.13S WCI  34
$$

NYZ177-179-078>081-300300-
LONG ISLAND NEW YORK

CITY           SKY/WX    TMP DP  RH WIND       PRES   REMARKS
FARMINGDALE    CLEAR     35  25  66 SW9       30.16S WCI  28
ISLIP          PTCLDY    34  22  61 SW10      30.14F WCI  26
SHIRLEY        CLEAR     34  23  64 SW7       30.16F WCI  28
WESTHAMPTON    CLEAR     34  23  64 SW6       30.16F WCI  29
MONTAUK POINT    N/A     36  23  59 SW6       30.16F WCI  31
$$

NYZ052-065-067-300300-
HUDSON VALLEY

CITY           SKY/WX    TMP DP  RH WIND       PRES   REMARKS
WHITE PLAINS   CLEAR     33  20  58 S6        30.11S WCI  28
NEWBURGH       NOT AVBL
MONTGOMERY     CLEAR     27  17  66 SW3       30.09R
POUGHKEEPSIE   CLEAR     32  14  47 CALM      30.10S
ALBANY         PTCLDY    29  12  49 CALM      30.07S
$$

NJZ001-105-106-008-010-013-015-019>022-104-300300-
NEW JERSEY

CITY           SKY/WX    TMP DP  RH WIND       PRES   REMARKS
NEWARK/LIBERTY PTCLDY    40   9  28 SW9       30.15S WCI  34
TETERBORO      CLEAR     40  10  29 SW9       30.13S WCI  34
CALDWELL       CLEAR     38   7  27 SW5       30.14R WCI  34
MORRISTOWN     PTCLDY    37   9  30 SW8       30.15R WCI  31
SOMERVILLE     PTCLDY    34  12  40 S3        30.13S
SUSSEX         FAIR      33  11  39 W5        30.11S WCI  29
ANDOVER          N/A     32  17  54 S3        30.11S
TRENTON        PTCLDY    37   9  31 SW6       30.16S WCI  32
MILLVILLE      CLEAR     29  19  66 CALM      30.21S
ATLANTIC CITY  CLEAR     34  15  46 SW8       30.21S WCI  27
WRIGHTSTOWN    CLEAR     31  14  48 SW7       30.16S WCI  25
TOMS RIVER     CLEAR     30  21  69 CALM      30.19S
BELMAR         CLEAR     34  18  51 SW6       30.17S WCI  29
$$

PAZ047>061-062-071-300300-
EASTERN PENNSYLVANIA

CITY           SKY/WX    TMP DP  RH WIND       PRES   REMARKS
PHILADELPHIA   FAIR      39  13  34 S9        30.19S WCI  33
ALLENTOWN      PTCLDY    38  11  32 S9        30.13F WCI  31
SCRANTON       MOCLDY    37   6  27 SW8       30.05F WCI  31
$$

CTZ002-004>006-009-010-012-RIZ004-006-007-MAZ004-011-015-300300-
SOUTHERN NEW ENGLAND
 IN CT

CITY           SKY/WX    TMP DP  RH WIND       PRES   REMARKS
BRADLEY INTL   PTCLDY    32   9  38 S7        30.08F WCI  26
HARTFORD       CLEAR     33  16  49 S7        30.11F WCI  27
DANBURY        CLEAR     29  15  56 CALM      30.12S
WTRBRY/OXFORD  CLEAR     32   7  34 SW3       30.11S
BRIDGEPORT     CLEAR     36  25  64 S14       30.13F WCI  27
MERIDEN        CLEAR     30  16  56 CALM      30.11F
NEW HAVEN      CLEAR     35  24  64 S9        30.13F WCI  28
CHESTER        FAIR      34  12  40 SW3       30.12F
GROTON         CLEAR     34  26  72 SW8       30.14F WCI  27
WILLIMANTIC    CLEAR     27  18  69 CALM      30.11F

 IN RI

CITY           SKY/WX    TMP DP  RH WIND       PRES   REMARKS
PROVIDENCE     CLEAR     33  17  51 SW6       30.14S WCI  28
BLOCK ISLAND   CLEAR     34  25  69 SW9       30.15S WCI  26
WESTERLY       CLEAR     34  23  64 CALM      30.15F

 IN MA

CITY           SKY/WX    TMP DP  RH WIND       PRES   REMARKS
BOSTON         CLEAR     34  16  47 S12       30.12S WCI  25
WORCESTER      CLEAR     31   3  30 SW3       30.06F
WESTFIELD      CLEAR     28  11  48 W3        30.08F
PROVINCETOWN   CLEAR     34  21  60 S10       30.15S WCI  26
NANTUCKET      CLEAR     31  21  66 SW12      30.17F WCI  22
$$

ANZ330-335-338-340-345-350-353-355-300300-
COASTAL MARINE OBSERVATIONS


STATION/POSITION TIME  SKY/WX   TEMP    WIND        PRES    VSBY  WAVE
                                AIR SEA DIR/SP/G                  HT/PER
                 (UTC)          (F)     (DEG/KT/KT) (MB)    (MI)  (FT/S)
NY HARB ENTRANCE 0150            38 38  210/ 16/ 19 1021.1          4/11
4S FIRE IS       0103               37                N/A           3/11
20S FIRE ISLAND  0050               39              1023.0          3/11
23SW MTP         0150                                 N/A           4/10
HUDSON CANYON    NOT AVBL
EXECUTION ROCKS  NOT AVBL
WESTERN LI SOUND NOT AVBL
CENTRAL LI SOUND NOT AVBL
EASTERN LI SOUND NOT AVBL
ROBBINS REEF     0106            42     220/ 11/ 14 1019.5
$$


>>>>>>>>>>>>>>>>>>>>>>>>>>>> KEY <<<<<<<<<<<<<<<<<<<<<<<<<<<
>                                                          <
>     SKY/WX - SKY CONDITION/PRESENT WEATHER               <
>     TMP    - TEMPERATURE IN FAHRENHEIT                   <
>     DP     - DEWPOINT IN FAHRENHEIT                      <
>     RH     - RELATIVE HUMIDITY IN PERCENT                <
>     WIND   - DIRECTION AND SPEED IN MPH                  <
>     PRES   - MEAN SEA LEVEL PRESSURE IN INCHES OF HG     <
>     WCI    - WIND CHILL INDEX                            <
>     VSB    - VISIBILITY IN MILES                         <
>     HX     - HEAT INDEX                                  <
>     TC     - TEMPERATURE IN CELSIUS                      <
>     VRB    - VARIABLE WIND DIRECTION                     <
>                                                          <
>>>>>>>>>>>>>>>>>>>>>>>>>>>> KEY <<<<<<<<<<<<<<<<<<<<<<<<<<<




USA.gov is the U.S. government's official web portal to all federal, state and local government web resources and services.